Temp
20 19 18 17 19 19 24 24 26 25 24 23 24 23 22 22 22 20 21 20 20 20 20 20 20 19 19 20 20 20 20 20 20 19 19 19 19 19 19 19 19 19 18 18 18 18 18 18 18
21 19 17 18 20 23 24 25 24 24 23 24 24 23 22 21 21 21 20 20 21 21 20 20 20 19 19 19 19 19 19 19 19 19 19 19 19 19 19 18 18 19 19 18 17 18 18 18 18
21 20 19 19 21 24 24 25 25 25 25 25 25 25 23 20 22 21 21 21 21 21 20 20 20 19 19 19 19 19 19 19 19 18 18 18 18 19 19 18 18 19 18 18 18 18 18 18 18
20 19 21 22 24 28 27 27 26 26 25 25 25 24 23 23 22 22 21 21 21 21 20 20 20 20 19 19 19 19 19 19 19 18 18 18 18 18 18 18 18 18 18 18 18 19 18 18 18
23 23 21 23 26 28 28 28 26 25 25 24 24 23 22 23 23 22 22 22 23 21 21 20 20 20 19 19 20 20 19 19 19 19 18 18 18 18 18 18 18 18 18 18 18 18 19 18 18
24 21 22 23 25 29 29 28 27 26 25 24 24 23 22 23 22 22 22 22 22 22 22 21 20 20 20 20 20 20 20 20 19 19 18 18 18 18 18 18 18 18 18 18 18 18 18 18 18
24 21 24 25 27 28 29 28 26 25 25 25 24 23 22 22 23 22 22 22 21 21 21 21 21 20 20 20 20 20 20 19 19 19 19 18 18 18 18 18 18 18 18 18 18 18 18 18 18
28 23 26 26 26 28 29 30 27 26 26 24 24 22 23 22 22 22 21 22 22 22 22 22 21 21 21 21 20 20 20 20 20 19 19 19 18 18 18 18 18 18 18 18 18 18 18 18 18
28 23 25 27 28 28 29 28 28 27 25 25 25 24 24 23 22 21 21 21 21 21 21 21 21 21 21 21 20 20 20 20 20 20 20 19 19 18 18 18 18 18 18 18 18 18 18 18 18
26 22 26 28 28 27 28 28 28 27 25 24 24 24 23 23 22 23 22 22 21 21 21 21 21 21 21 20 20 20 19 19 19 19 19 19 19 19 18 17 18 17 17 18 18 18 18 18 18
27 25 27 29 28 29 27 28 26 26 25 24 24 24 24 23 23 23 23 23 23 22 21 21 21 21 21 21 20 20 20 19 19 18 18 18 18 18 18 18 18 18 18 18 18 18 18 18 18
28 30 30 29 28 28 26 28 28 27 27 25 24 24 24 24 23 23 23 22 22 22 21 21 21 21 21 20 20 19 19 19 19 18 18 18 18 18 18 18 18 18 18 18 18 18 19 18 18
29 30 32 31 29 29 28 27 27 27 29 26 25 24 24 24 24 24 24 23 23 22 21 21 21 21 21 20 20 20 19 19 19 18 18 18 18 18 18 18 18 18 18 18 18 18 18 19 19
31 32 32 31 27 27 26 27 29 27 27 26 25 25 25 24 24 24 24 23 23 23 22 22 22 21 21 20 20 20 20 19 18 18 18 17 18 18 18 18 18 18 18 18 18 19 19 19 19
31 29 30 29 28 27 28 26 26 27 26 26 25 25 25 25 25 25 25 24 23 23 23 22 22 21 21 21 20 20 18 18 17 17 17 17 17 18 18 18 18 18 18 18 19 18 18 19 19
29 26 25 28 28 28 28 26 27 27 27 26 26 26 25 25 25 25 25 24 23 23 23 22 22 21 20 20 20 19 18 17 17 16 16 17 17 17 18 18 18 18 19 18 18 18 18 19 20
24 26 27 28 30 29 27 28 28 27 28 26 26 26 26 26 26 25 25 25 24 23 23 22 21 21 21 20 20 19 19 18 17 17 17 17 17 17 18 18 18 18 18 18 18 18 18 19 19
25 27 27 28 31 30 27 27 27 28 27 25 26 27 27 26 26 26 25 25 24 24 23 22 22 21 21 20 20 20 19 19 18 18 17 16 17 17 17 18 18 18 18 18 18 18 18 19 19
27 28 30 30 30 30 28 27 27 28 26 25 27 27 29 26 26 27 25 25 24 24 23 23 22 21 21 21 20 20 20 19 18 18 17 17 17 17 18 18 18 18 18 17 17 17 18 18 18
27 28 28 29 31 29 28 28 28 26 26 26 26 26 28 27 25 26 25 25 25 24 23 23 22 22 21 21 20 20 20 19 19 18 18 18 18 18 18 18 18 17 17 17 17 17 17 17 18
27 26 28 29 30 29 28 25 25 26 26 26 27 27 27 25 26 26 26 25 25 24 24 23 22 22 21 21 20 20 20 20 19 18 18 18 18 17 17 17 17 17 17 17 17 17 17 17 17
25 28 30 30 28 26 27 23 25 23 25 25 26 25 26 26 26 26 26 26 25 24 24 23 23 22 22 21 20 19 19 19 19 18 18 18 17 17 17 16 16 17 17 17 17 17 17 17 17
28 28 28 28 26 24 26 24 23 24 24 24 25 25 25 27 27 26 26 27 25 24 24 23 23 22 22 21 20 20 19 19 19 18 18 17 17 17 17 16 17 17 17 17 17 16 16 16 17
31 31 25 23 21 23 25 24 23 22 26 25 24 25 26 28 27 26 26 26 25 24 23 23 23 23 21 21 20 20 18 18 19 18 18 17 17 17 16 16 16 16 17 18 18 17 17 16 16
27 22 21 24 22 23 24 25 24 25 26 26 25 26 28 28 25 25 26 25 25 24 23 23 22 22 21 21 19 19 17 18 17 18 18 18 18 16 16 16 15 15 17 17 16 16 16 16 16
28 23 20 24 22 23 24 26 26 23 25 30 29 29 27 26 25 26 27 25 25 24 23 23 22 22 21 19 18 18 18 18 17 17 17 18 17 16 17 15 14 15 16 16 15 15 15 15 15
26 26 23 22 22 22 22 25 25 24 24 25 27 24 25 25 26 28 27 25 24 24 23 23 22 22 20 19 18 18 18 18 17 17 16 16 16 16 17 15 14 13 14 14 14 15 15 15 16
27 26 26 20 25 24 22 24 23 26 25 22 20 21 20 20 19 27 27 25 24 24 23 23 22 22 20 19 17 17 17 18 16 15 16 16 15 16 15 14 14 15 15 14 14 14 15 15 16
27 26 23 21 19 21 21 21 19 19 20 21 19 19 22 18 15 18 25 23 23 23 23 23 22 21 20 18 17 18 18 19 18 16 16 16 15 15 14 14 14 15 15 15 15 15 15 15 16
27 26 21 20 23 19 20 21 17 17 19 19 22 24 24 23 21 19 24 24 25 23 23 23 22 21 20 19 18 17 17 18 18 17 16 16 14 14 14 14 14 14 15 15 15 16 16 15 15
Height
1528 1532 1535 1536 1541 1537 1531 1528 1513 1518 1518 1520 1520 1520 1522 1522 1522 1538 1531 1533 1537 1539 1542 1544 1546 1548 1549 1551 1551 1552 1553 1554 1555 1556 1556 1557 1557 1558 1558 1558 1559 1560 1561 1561 1561 1562 1562 1563 1563
1524 1529 1534 1534 1539 1541 1538 1520 1524 1520 1521 1520 1519 1521 1522 1527 1522 1526 1531 1535 1539 1541 1543 1545 1547 1549 1550 1551 1552 1553 1554 1555 1556 1557 1558 1558 1558 1559 1559 1559 1559 1560 1562 1563 1563 1563 1564 1565 1565
1522 1525 1533 1532 1534 1535 1536 1521 1521 1522 1522 1521 1520 1523 1523 1527 1527 1529 1533 1537 1540 1543 1545 1547 1549 1550 1551 1552 1554 1555 1555 1556 1557 1558 1558 1559 1560 1561 1561 1561 1561 1562 1562 1563 1564 1564 1565 1566 1567
1521 1526 1529 1533 1533 1518 1515 1517 1517 1521 1524 1523 1523 1526 1530 1529 1530 1533 1535 1539 1542 1544 1546 1548 1550 1551 1552 1554 1554 1555 1556 1557 1558 1559 1559 1560 1561 1562 1562 1563 1563 1563 1564 1564 1564 1565 1566 1567 1568
1523 1522 1532 1535 1529 1517 1515 1516 1517 1522 1524 1526 1526 1529 1532 1534 1535 1536 1538 1541 1543 1545 1547 1549 1551 1552 1552 1553 1553 1554 1555 1556 1558 1559 1560 1560 1561 1562 1562 1563 1563 1564 1564 1565 1565 1566 1567 1567 1568
1523 1524 1539 1543 1530 1517 1517 1520 1520 1523 1527 1529 1531 1532 1537 1538 1538 1539 1541 1542 1544 1545 1547 1549 1550 1551 1551 1552 1553 1554 1555 1556 1557 1558 1560 1561 1561 1562 1563 1563 1563 1565 1565 1566 1567 1567 1567 1569 1569
1524 1529 1538 1533 1531 1524 1521 1523 1521 1525 1528 1531 1531 1536 1540 1540 1540 1541 1543 1544 1545 1546 1547 1548 1550 1551 1551 1552 1553 1554 1555 1556 1557 1558 1559 1560 1561 1562 1562 1563 1563 1563 1565 1566 1567 1567 1568 1569 1570
1524 1526 1531 1533 1538 1536 1525 1522 1522 1524 1527 1531 1529 1536 1538 1540 1542 1544 1545 1546 1547 1548 1548 1549 1551 1551 1552 1552 1553 1554 1555 1556 1557 1557 1558 1560 1561 1562 1562 1562 1563 1564 1566 1566 1567 1568 1568 1568 1570
1523 1534 1543 1536 1534 1533 1525 1526 1527 1525 1527 1530 1531 1533 1538 1540 1543 1547 1547 1549 1549 1549 1549 1550 1550 1551 1552 1552 1554 1555 1555 1556 1557 1557 1558 1559 1560 1561 1561 1562 1562 1563 1564 1565 1566 1566 1566 1567 1568
1523 1538 1533 1518 1528 1533 1532 1530 1529 1530 1533 1532 1532 1537 1540 1540 1543 1545 1546 1548 1549 1550 1550 1551 1551 1551 1551 1551 1553 1553 1554 1555 1556 1557 1557 1557 1559 1560 1560 1561 1561 1563 1563 1563 1564 1565 1565 1566 1568
1520 1526 1519 1520 1528 1526 1533 1528 1530 1531 1534 1531 1531 1533 1537 1541 1543 1543 1544 1546 1548 1551 1551 1551 1551 1551 1550 1550 1551 1552 1552 1552 1553 1554 1556 1557 1557 1558 1559 1559 1560 1561 1561 1561 1562 1563 1564 1564 1567
1518 1506 1510 1517 1524 1524 1524 1519 1515 1520 1527 1532 1533 1534 1536 1539 1541 1543 1543 1545 1546 1549 1552 1551 1551 1550 1549 1549 1550 1551 1551 1552 1552 1552 1553 1555 1556 1556 1557 1557 1559 1559 1559 1560 1561 1561 1562 1563 1564
1513 1505 1503 1510 1513 1516 1517 1515 1514 1513 1517 1527 1533 1535 1536 1538 1541 1543 1544 1546 1546 1547 1549 1550 1550 1550 1550 1548 1548 1548 1549 1550 1550 1549 1551 1553 1555 1555 1555 1556 1557 1557 1558 1560 1560 1560 1561 1561 1563
1513 1506 1502 1502 1511 1515 1516 1515 1514 1519 1521 1524 1526 1530 1534 1534 1537 1541 1544 1545 1545 1545 1546 1549 1549 1549 1549 1549 1549 1549 1548 1546 1546 1547 1548 1549 1552 1553 1553 1554 1554 1554 1555 1557 1558 1559 1559 1559 1560
1512 1510 1503 1503 1514 1518 1519 1522 1518 1516 1524 1521 1523 1529 1532 1535 1535 1538 1542 1543 1543 1543 1545 1547 1548 1548 1547 1547 1548 1547 1546 1543 1543 1540 1544 1546 1548 1550 1551 1552 1553 1552 1553 1554 1554 1554 1553 1553 1555
1510 1511 1530 1516 1516 1518 1516 1532 1517 1520 1519 1522 1525 1526 1532 1533 1535 1538 1541 1543 1543 1543 1545 1547 1548 1547 1546 1548 1545 1545 1541 1538 1537 1537 1540 1541 1545 1547 1549 1551 1552 1551 1550 1550 1550 1549 1548 1547 1549
1522 1533 1520 1511 1507 1508 1515 1515 1509 1517 1517 1532 1530 1529 1530 1531 1532 1534 1539 1541 1542 1541 1543 1545 1546 1548 1546 1544 1544 1544 1540 1535 1535 1536 1538 1542 1544 1545 1547 1549 1550 1550 1549 1548 1547 1546 1546 1546 1548
1536 1528 1518 1516 1498 1501 1513 1513 1506 1509 1513 1524 1527 1522 1522 1524 1528 1529 1535 1537 1540 1540 1541 1544 1545 1545 1545 1544 1544 1543 1541 1538 1537 1538 1539 1540 1542 1544 1545 1547 1548 1548 1547 1546 1546 1545 1545 1545 1547
1517 1518 1511 1500 1495 1498 1502 1503 1504 1504 1511 1515 1517 1509 1508 1519 1526 1526 1531 1535 1537 1537 1539 1542 1542 1543 1544 1543 1543 1542 1541 1541 1540 1541 1542 1542 1541 1542 1545 1546 1546 1545 1545 1545 1543 1545 1544 1543 1545
1515 1517 1514 1498 1491 1498 1499 1498 1496 1496 1498 1501 1504 1504 1508 1514 1523 1523 1527 1531 1533 1535 1538 1540 1540 1540 1541 1543 1542 1541 1541 1542 1542 1542 1542 1543 1543 1544 1545 1546 1546 1546 1545 1544 1544 1544 1544 1544 1544
1512 1518 1512 1506 1493 1491 1498 1512 1502 1496 1495 1498 1499 1502 1507 1511 1516 1521 1523 1526 1530 1532 1534 1536 1537 1538 1539 1540 1542 1541 1540 1540 1542 1543 1543 1544 1545 1545 1544 1545 1545 1544 1544 1543 1543 1542 1542 1542 1542
1520 1498 1497 1499 1511 1529 1501 1543 1510 1504 1499 1498 1497 1500 1507 1509 1512 1518 1517 1521 1526 1529 1532 1537 1537 1538 1538 1539 1539 1541 1541 1541 1541 1542 1543 1543 1543 1543 1543 1543 1544 1542 1540 1539 1539 1538 1539 1538 1539
1501 1492 1497 1501 1509 1519 1513 1534 1518 1502 1507 1497 1490 1496 1502 1503 1508 1511 1511 1514 1522 1527 1533 1536 1536 1537 1536 1538 1540 1540 1540 1540 1540 1541 1542 1542 1542 1543 1542 1542 1541 1539 1537 1536 1535 1536 1537 1536 1535
1480 1485 1497 1505 1521 1543 1518 1523 1521 1512 1491 1490 1492 1494 1495 1498 1503 1510 1517 1518 1520 1524 1528 1533 1539 1536 1535 1537 1537 1539 1539 1539 1539 1540 1540 1540 1540 1541 1541 1540 1539 1536 1534 1533 1532 1533 1533 1534 1534
1488 1512 1546 1542 1549 1547 1512 1515 1506 1487 1482 1478 1485 1486 1488 1493 1501 1505 1514 1517 1519 1523 1528 1531 1534 1534 1534 1534 1536 1538 1537 1538 1537 1537 1538 1537 1536 1538 1538 1538 1537 1535 1534 1533 1532 1532 1532 1533 1533
1492 1509 1545 1551 1558 1541 1512 1520 1502 1487 1476 1474 1477 1477 1486 1491 1498 1504 1504 1506 1513 1523 1527 1532 1531 1534 1532 1532 1533 1534 1534 1536 1536 1535 1535 1535 1535 1536 1535 1536 1536 1534 1533 1532 1531 1531 1531 1531 1530
1492 1505 1497 1526 1529 1541 1529 1506 1494 1484 1481 1477 1478 1486 1487 1490 1497 1501 1502 1505 1508 1519 1533 1532 1530 1532 1532 1531 1531 1532 1535 1535 1533 1533 1534 1535 1536 1536 1534 1535 1535 1533 1532 1532 1532 1530 1530 1529 1528
1479 1481 1510 1528 1535 1546 1535 1516 1516 1492 1488 1488 1490 1495 1507 1509 1521 1504 1501 1502 1510 1519 1532 1529 1528 1529 1529 1529 1530 1531 1534 1533 1527 1530 1532 1534 1536 1536 1534 1536 1535 1534 1532 1531 1531 1530 1529 1528 1527
1485 1492 1500 1510 1525 1543 1551 1531 1507 1502 1491 1492 1497 1501 1495 1531 1520 1522 1499 1507 1517 1520 1522 1527 1527 1527 1526 1527 1529 1530 1532 1534 1531 1532 1532 1535 1536 1536 1536 1537 1536 1535 1534 1533 1532 1530 1529 1528 1528
1474 1484 1496 1524 1520 1526 1529 1527 1502 1500 1497 1488 1484 1488 1487 1495 1498 1504 1501 1511 1510 1514 1516 1521 1523 1524 1525 1527 1528 1528 1529 1533 1534 1533 1533 1534 1536 1537 1538 1538 1538 1537 1536 1535 1533 1531 1529 1529 1529
Wind_Speed
10 11 8 5 1 1 3 6 5 5 4 1 16 7 3 6 3 4 21 14 23 22 21 18 17 17 15 15 14 14 14 13 13 11 11 12 12 12 10 12 12 11 9 10 10 11 11 12 12
10 11 9 2 0 4 3 7 13 12 13 22 24 18 10 5 16 20 24 19 24 22 21 19 18 17 15 14 14 13 13 11 12 11 10 10 10 12 14 14 12 11 8 8 9 9 10 12 14
9 5 3 3 1 6 9 12 11 15 17 18 12 14 7 8 25 23 18 26 23 20 19 18 18 17 15 13 12 12 11 10 9 10 9 8 8 8 8 7 9 9 9 8 7 8 9 13 15
11 6 2 2 4 0 14 14 22 19 20 20 16 7 12 23 24 22 25 24 21 19 18 17 16 15 13 12 11 11 10 8 7 7 8 8 8 8 7 6 5 6 7 8 7 7 10 13 16
7 5 3 3 5 2 7 21 25 16 14 20 22 12 8 16 22 22 26 23 20 19 18 17 15 14 13 12 11 10 11 10 7 6 6 4 5 5 5 5 5 5 5 4 6 7 8 12 15
5 4 4 4 5 4 5 23 24 19 20 21 17 13 9 20 22 23 23 19 16 15 17 15 15 14 13 12 12 10 10 10 8 7 6 5 4 4 4 5 3 4 3 3 4 4 6 9 13
3 3 2 4 2 10 7 26 18 22 22 10 23 9 18 29 22 22 21 16 13 14 16 13 13 13 12 11 11 11 10 9 8 8 6 6 5 4 3 3 3 2 2 3 3 3 4 7 10
4 3 5 3 4 4 7 14 26 24 7 26 30 8 15 26 23 25 23 15 11 13 10 8 9 10 10 10 10 9 8 8 7 6 6 6 6 4 3 2 2 4 2 1 2 3 3 4 6
5 4 2 4 3 3 17 10 21 12 27 12 11 28 26 22 29 26 19 15 13 13 12 9 7 7 6 7 7 6 6 5 5 5 5 5 6 6 4 4 4 3 3 1 1 2 2 3 5
5 4 5 10 8 6 12 12 8 11 13 18 22 29 28 25 27 22 18 14 13 13 11 8 7 6 5 8 8 5 6 6 5 4 6 5 6 7 6 5 4 3 1 2 2 2 2 1 3
5 6 8 12 22 22 7 4 2 6 5 23 31 37 32 28 25 19 16 11 9 10 11 9 7 3 2 8 9 5 9 8 9 7 7 5 9 6 5 2 6 4 2 4 3 4 3 4 6
5 12 11 6 22 23 12 11 11 10 14 21 30 34 33 30 27 20 17 18 16 15 11 9 7 2 2 4 3 8 9 10 9 9 9 9 10 9 5 9 10 2 4 4 3 3 4 7 8
4 15 20 16 30 34 24 14 7 9 18 28 29 31 30 28 26 17 17 20 17 16 15 9 7 5 6 4 6 9 8 10 13 15 12 13 13 12 8 9 5 7 7 7 9 8 9 9 11
9 25 28 15 28 29 20 12 9 13 30 34 34 33 28 28 26 16 20 24 20 16 15 11 7 7 9 6 7 9 13 13 17 16 15 17 22 19 12 11 8 10 10 12 11 10 10 14 15
11 7 7 23 16 4 15 6 3 25 30 33 37 30 28 26 24 18 17 23 22 19 15 11 10 10 9 9 10 12 11 15 15 19 18 17 18 18 10 11 11 11 12 13 14 15 18 17 14
7 6 5 6 13 15 5 6 8 29 32 28 28 30 28 26 23 18 19 20 21 18 15 12 13 12 11 8 11 12 15 15 12 13 13 16 17 13 10 9 9 11 13 13 13 17 18 9 15
6 1 4 5 9 6 7 7 8 24 24 8 18 11 24 27 25 21 22 22 20 18 15 13 14 13 11 10 9 12 11 10 1 3 8 13 16 16 13 10 13 13 9 11 11 15 13 5 8
6 3 5 3 9 5 7 10 6 24 17 10 17 14 22 28 30 26 25 23 20 18 16 14 15 13 11 10 8 6 8 8 6 4 4 6 12 19 20 16 11 6 7 6 10 9 9 9 12
4 3 4 5 5 2 7 6 10 14 21 21 29 31 20 31 34 28 28 24 21 20 17 15 14 12 11 10 7 2 5 6 9 8 5 5 5 6 10 9 7 6 6 6 7 6 9 10 7
7 3 7 4 6 3 9 15 8 15 25 28 33 35 29 31 36 33 31 26 24 23 18 15 12 10 8 8 8 3 2 5 7 7 8 8 7 6 4 5 5 3 3 6 7 6 6 8 8
6 8 5 9 4 4 3 7 5 4 19 24 28 36 32 39 41 38 34 28 27 27 21 17 10 9 8 8 9 6 3 5 5 5 6 6 4 4 5 2 2 4 7 8 8 10 9 10 10
5 13 11 16 3 7 7 6 6 4 11 13 22 27 34 38 40 40 34 29 31 28 22 16 10 8 9 9 9 7 6 6 3 3 4 5 3 2 1 2 5 8 9 9 10 10 12 13 14
9 9 13 9 6 6 5 2 6 3 6 11 18 29 29 40 33 42 39 31 32 29 21 15 8 8 7 8 9 6 9 7 4 3 5 7 5 4 1 4 6 7 8 7 6 6 7 8 9
5 4 8 6 5 2 5 5 4 7 19 6 10 27 31 38 39 39 36 30 31 29 22 14 9 8 4 7 8 7 8 7 4 5 6 7 5 3 1 6 9 8 4 2 4 5 5 6 6
7 7 3 4 5 5 3 1 8 5 7 9 17 30 31 40 31 30 33 32 31 27 23 14 10 5 7 9 7 6 9 7 6 6 5 5 4 4 3 6 6 4 1 2 3 3 3 4 5
5 8 6 5 3 6 3 5 3 5 7 9 9 23 31 35 33 35 37 37 31 24 19 10 7 2 6 4 8 11 11 7 7 8 3 4 2 2 7 3 5 5 4 6 8 6 4 1 3
8 2 6 7 1 4 4 6 6 5 5 17 23 27 33 36 40 36 27 33 29 22 13 7 5 1 5 5 6 6 6 6 11 10 5 2 2 4 4 2 3 6 7 9 8 5 5 3 4
9 5 0 3 3 4 5 4 5 3 4 20 18 19 18 30 38 33 29 30 25 19 7 4 3 0 2 4 4 2 3 12 4 9 6 1 3 1 3 5 5 8 6 6 6 3 4 3 4
1 2 4 5 5 5 3 6 6 5 5 12 17 19 21 29 46 41 31 29 20 16 10 7 5 2 4 6 6 3 1 7 13 10 5 3 3 6 7 6 4 7 8 6 3 2 3 4 5
6 7 6 5 7 2 4 5 7 6 8 11 20 24 20 23 30 22 34 27 20 19 13 12 4 4 5 5 7 6 5 10 8 6 3 5 7 9 9 6 6 8 10 11 11 9 7 6 7
Wind_Direction
121 155 172 209 285 262 342 51 110 69 59 86 120 122 104 46 130 169 151 169 164 157 153 152 153 151 147 145 142 146 149 145 140 136 130 130 126 114 113 116 117 106 112 116 115 121 121 117 121
132 137 159 215 323 86 24 89 82 100 110 102 104 101 71 77 110 130 157 161 160 157 154 153 153 154 154 149 149 150 152 152 144 142 133 131 128 119 105 105 104 110 110 116 113 116 119 120 123
108 116 153 181 188 112 100 117 123 133 129 116 103 94 98 114 123 132 147 156 156 154 154 154 154 156 156 152 151 150 153 159 155 148 143 137 128 122 130 120 110 102 112 109 113 110 118 125 130
123 142 259 31 286 216 121 124 123 107 104 100 101 78 111 129 139 139 142 149 152 152 155 154 156 156 154 150 151 154 158 162 163 158 154 152 148 140 135 125 122 123 111 105 112 103 122 130 136
152 99 55 310 320 110 114 129 118 108 84 99 108 105 92 147 138 133 137 138 140 148 155 157 159 158 155 154 156 159 161 166 169 178 172 160 150 139 134 120 121 120 121 128 117 121 125 137 147
37 78 47 354 321 103 76 115 115 109 112 107 101 99 109 138 146 152 148 143 135 136 151 157 159 161 161 162 162 168 166 166 172 179 179 170 177 161 135 120 124 124 140 155 137 132 141 136 155
99 82 183 316 308 95 108 129 128 129 133 131 129 119 139 151 163 164 150 149 150 155 150 157 162 162 166 167 169 175 176 176 177 177 182 177 179 169 145 124 125 111 144 163 159 155 165 158 156
188 83 358 37 28 36 85 91 138 145 113 141 133 155 168 163 160 162 160 158 145 130 142 149 162 169 172 176 177 180 186 187 188 184 184 184 176 178 168 143 129 102 93 141 149 216 187 169 165
173 58 97 331 82 346 101 83 71 123 141 162 201 157 157 154 158 161 161 154 149 152 138 141 167 174 183 186 176 180 190 199 199 190 178 184 179 165 168 161 155 130 94 98 145 205 201 203 200
129 122 220 188 105 75 38 40 48 92 109 108 122 150 157 158 165 168 171 167 169 168 155 142 136 137 163 183 169 180 199 180 174 188 177 180 186 186 190 208 208 164 141 166 192 184 238 243 246
195 172 186 229 125 126 136 241 103 103 131 150 152 162 164 171 175 181 185 203 194 183 175 152 155 186 207 173 190 171 175 172 171 166 184 186 198 206 202 204 208 195 215 206 198 185 200 213 228
244 233 197 172 137 137 182 149 163 172 189 170 164 165 167 175 179 190 200 200 197 193 181 162 176 232 219 210 228 230 220 219 220 213 216 206 212 221 249 250 237 223 227 226 233 211 269 232 206
335 291 304 139 169 173 165 188 176 163 166 176 167 171 176 180 185 197 212 208 204 198 187 187 197 205 234 229 277 244 249 255 238 248 232 231 234 236 252 243 204 231 265 272 280 274 284 253 216
232 271 274 289 162 173 170 187 167 141 162 167 166 179 183 185 188 200 209 208 206 201 201 200 225 266 249 248 254 270 278 283 250 255 223 229 232 254 248 242 254 249 261 274 272 273 294 237 256
298 255 349 134 152 148 138 345 314 154 165 168 175 181 187 189 189 197 217 202 204 210 208 227 235 251 269 268 276 277 294 274 262 241 230 240 232 216 230 242 253 260 264 268 266 262 273 269 248
339 43 93 191 153 175 143 233 229 167 170 181 174 181 191 190 195 201 210 210 208 213 218 223 232 240 255 271 281 304 310 294 275 263 239 208 207 210 218 234 248 264 273 268 278 275 295 240 234
7 326 351 339 165 158 219 262 210 192 180 148 148 166 198 196 199 200 207 215 210 215 219 227 224 235 250 272 288 338 347 7 353 130 193 206 209 212 223 250 263 282 260 268 282 269 272 251 244
244 238 263 237 305 155 169 248 256 207 169 129 176 172 183 202 201 198 206 210 216 215 222 232 232 247 262 270 275 357 28 53 70 83 146 205 231 236 245 252 251 267 269 255 268 253 259 252 244
191 269 314 282 193 75 276 289 201 192 160 156 184 189 206 213 205 202 202 207 213 215 216 229 243 250 259 262 259 282 62 94 99 98 92 120 120 184 203 230 238 262 294 286 268 262 283 231 254
188 227 282 276 278 341 300 282 229 164 181 190 190 195 207 201 213 198 199 205 218 216 219 222 237 256 255 255 246 245 92 125 115 102 102 102 116 138 173 210 209 219 238 252 251 255 251 240 243
207 189 225 238 338 256 5 350 315 150 186 203 216 200 202 198 197 198 199 205 217 213 218 220 227 242 250 258 236 235 224 160 128 100 98 103 116 155 147 195 245 279 265 261 260 245 247 256 261
221 213 207 251 109 246 112 272 277 253 209 221 213 213 190 195 198 201 198 206 217 217 217 223 228 237 258 268 243 232 219 186 148 84 91 101 114 125 27 350 298 286 284 276 267 262 262 264 257
235 174 213 221 220 70 305 101 270 66 248 242 241 211 204 204 210 203 203 206 216 215 212 222 222 246 250 246 240 225 179 189 180 126 127 134 169 179 151 333 333 308 290 279 252 255 258 267 269
218 335 33 44 121 52 243 166 258 187 224 214 189 202 211 213 206 203 202 205 213 210 205 207 231 230 234 231 237 219 199 207 200 208 173 166 200 188 259 322 324 329 299 253 241 244 251 258 268
70 57 341 344 355 221 251 348 237 267 238 199 184 204 209 213 187 182 194 204 214 212 199 203 221 223 197 236 216 228 209 228 225 218 230 195 198 181 334 334 339 336 51 111 128 190 229 246 243
233 146 159 201 202 257 327 272 268 300 354 166 148 174 166 171 176 184 201 199 207 213 204 215 203 220 210 200 185 214 219 255 246 196 224 245 185 311 345 19 351 50 80 80 78 80 86 62 248
254 199 198 125 87 68 267 291 324 342 6 66 126 146 162 174 178 173 193 197 198 200 204 253 199 244 193 196 183 208 242 305 276 229 191 162 4 355 341 342 50 49 84 89 87 78 82 60 32
166 174 39 2 205 250 296 272 237 317 17 87 83 107 90 5 313 197 186 190 190 179 197 151 169 328 188 154 168 213 277 321 47 189 191 111 39 4 102 106 72 31 65 84 89 77 53 12 28
221 223 75 126 143 159 184 267 297 227 260 106 107 105 114 336 277 274 184 173 175 176 149 195 182 145 136 133 151 143 205 121 108 114 91 61 121 114 113 111 78 59 65 87 97 101 82 71 56
173 228 139 129 265 153 153 253 302 304 4 98 103 130 178 181 243 261 177 175 172 166 171 178 161 175 157 163 178 184 197 162 171 140 114 142 139 129 133 133 109 86 77 76 71 67 79 101 91